Location: Oberwangen
(47.4286°N, 8.9679°E)
Time: 09:31:04
(UTC+00:00)

SPOT 1/Viking Rocket - Pass Details

Date: 20 June 2021
Orbit: 778 x 793 km, 98.4° (Epoch: 04 August)

Event Time Altitude Azimuth Distance (km) Brightness Sun altitude
Exits shadow 20:40:41 - 177° (S) 2,587 5.7 -10.0°
Reaches altitude 10° 20:41:22 10° 179° (S) 2,324 5.5 -10.1°
Maximum altitude 20:46:25 60° 259° (WSW) 890 4.0 -10.6°
Drops below altitude 10° 20:51:32 10° 339° (NNW) 2,342 7.4 -11.1°
Sets 20:53:54 0° 343° (NNW) 3,276 8.3 -11.3°
